Location: Sungai Anya
(2.6167°N, 114.0500°E)
Time: 20:07:04
(UTC+00:00)

Cosmos 1153 Rocket - Pass Details

Date: 05 June 2022
Orbit: 954 x 1005 km, 82.9° (Epoch: 02 July)

Event Time Altitude Azimuth Distance (km) Brightness Sun altitude
Rises 20:47:53 0° 3° (N) 3,718 7.9 -20.6°
Reaches altitude 10° 20:50:27 10° 7° (N) 2,769 7.3 -20.0°
Maximum altitude 20:56:44 62° 87° (E) 1,118 5.0 -18.6°
Drops below altitude 10° 21:02:58 10° 166° (SSE) 2,757 6.8 -17.2°
Sets 21:05:31 0° 170° (S) 3,701 7.4 -16.6°
